TimeEST,TemperatureF,Dew PointF,Humidity,Sea Level PressureIn,VisibilityMPH,Wind Direction,Wind SpeedMPH,Gust SpeedMPH,PrecipitationIn,Events,Conditions,WindDirDegrees,DateUTC
12:02 AM,17.6,12.2,79,30.06,3.0,Calm,Calm,-,0.00,Snow,Light Snow,0,2013-01-24 05:02:00
12:37 AM,17.6,12.2,79,30.06,1.8,Calm,Calm,-,0.00,Snow,Light Snow,0,2013-01-24 05:37:00
12:53 AM,17.1,12.0,81,30.11,2.0,Calm,Calm,-,0.00,Snow,Light Snow,0,2013-01-24 05:53:00
1:00 AM,17.6,12.2,79,30.06,2.5,Calm,Calm,-,0.00,Snow,Light Snow,0,2013-01-24 06:00:00
1:33 AM,15.8,12.2,86,30.06,4.0,Calm,Calm,-,0.00,,Overcast,0,2013-01-24 06:33:00
1:53 AM,16.0,10.9,81,30.12,6.0,Calm,Calm,-,0.00,,Haze,0,2013-01-24 06:53:00
2:53 AM,16.0,12.0,84,30.16,3.0,Calm,Calm,-,0.00,Snow,Light Snow,0,2013-01-24 07:53:00
3:53 AM,16.0,10.9,81,30.19,6.0,NNW,3.5,-,0.00,,Haze,330,2013-01-24 08:53:00
4:53 AM,14.0,9.0,80,30.23,10.0,NW,5.8,-,N/A,,Partly Cloudy,310,2013-01-24 09:53:00
5:53 AM,12.9,8.1,81,30.28,10.0,Calm,Calm,-,N/A,,Clear,0,2013-01-24 10:53:00
6:34 AM,12.2,6.8,79,30.26,9.0,NW,3.5,-,N/A,,Mostly Cloudy,310,2013-01-24 11:34:00
6:42 AM,12.2,6.8,79,30.27,10.0,Calm,Calm,-,N/A,,Scattered Clouds,0,2013-01-24 11:42:00
6:53 AM,12.0,7.0,80,30.34,10.0,NW,3.5,-,N/A,,Partly Cloudy,320,2013-01-24 11:53:00
7:53 AM,12.9,7.0,77,30.39,10.0,WNW,4.6,-,N/A,,Partly Cloudy,300,2013-01-24 12:53:00
8:53 AM,15.1,7.0,70,30.43,10.0,WNW,9.2,-,N/A,,Clear,300,2013-01-24 13:53:00
9:53 AM,16.0,7.0,68,30.47,10.0,WNW,8.1,-,N/A,,Mostly Cloudy,300,2013-01-24 14:53:00
10:43 AM,17.6,8.6,68,30.46,10.0,WNW,8.1,-,N/A,,Partly Cloudy,300,2013-01-24 15:43:00
10:53 AM,18.0,8.1,65,30.52,10.0,WNW,8.1,-,N/A,,Partly Cloudy,300,2013-01-24 15:53:00
11:48 AM,19.4,10.4,68,30.49,10.0,NW,12.7,-,N/A,,Mostly Cloudy,310,2013-01-24 16:48:00
11:53 AM,19.9,9.0,62,30.54,10.0,NW,11.5,-,N/A,,Overcast,320,2013-01-24 16:53:00
12:44 PM,19.4,6.8,58,30.49,10.0,NW,8.1,-,N/A,,Mostly Cloudy,310,2013-01-24 17:44:00
12:53 PM,21.0,7.0,55,30.53,10.0,North,8.1,-,N/A,,Mostly Cloudy,350,2013-01-24 17:53:00
1:53 PM,23.0,6.1,48,30.52,10.0,NW,8.1,-,N/A,,Mostly Cloudy,310,2013-01-24 18:53:00
2:53 PM,21.0,3.0,46,30.54,10.0,North,8.1,-,N/A,,Mostly Cloudy,350,2013-01-24 19:53:00
3:53 PM,21.9,-0.0,38,30.55,10.0,North,10.4,-,N/A,,Partly Cloudy,360,2013-01-24 20:53:00
4:53 PM,21.0,1.0,42,30.56,10.0,NNW,8.1,-,N/A,,Partly Cloudy,340,2013-01-24 21:53:00
5:53 PM,19.0,-0.0,43,30.58,10.0,North,6.9,-,N/A,,Clear,360,2013-01-24 22:53:00
6:53 PM,17.1,-0.0,47,30.59,10.0,North,3.5,-,N/A,,Clear,10,2013-01-24 23:53:00
7:53 PM,12.9,1.9,62,30.60,10.0,Calm,Calm,-,N/A,,Clear,0,2013-01-25 00:53:00
8:53 PM,12.0,1.9,64,30.59,10.0,Calm,Calm,-,N/A,,Clear,0,2013-01-25 01:53:00
9:53 PM,10.0,1.9,70,30.58,10.0,Calm,Calm,-,N/A,,Clear,0,2013-01-25 02:53:00
10:53 PM,12.0,3.9,70,30.57,10.0,Calm,Calm,-,N/A,,Clear,0,2013-01-25 03:53:00
11:53 PM,12.9,5.0,71,30.55,10.0,Calm,Calm,-,N/A,,Clear,0,2013-01-25 04:53:00